Regional Weather Roundup
Issued by NWS

Home | Current Version | Previous Version | Text Only | Print | Product List | Glossary On
Versions: 1 2 3 4 5 6 7 8 9 10 11 12 13 14 15 16 17 18 19 20 21 22 23 24 25 26 27 28 29 30 31 32 33 34 35 36 37 38 39 40 41 42 43 44 45 46 47 48 49 50
000
ASUS46 KLOX 162212
RWRCA

SOUTHERN CALIFORNIA WEATHER ROUNDUP
NATIONAL WEATHER SERVICE OXNARD CALIFORNIA
300 PM PDT WED APR 16 2014

NOTE: "FAIR" INDICATES FEW OR NO CLOUDS BELOW 12,000 FEET WITH NO
SIGNIFICANT WEATHER AND/OR OBSTRUCTIONS TO VISIBILITY.

  -  STATIONS PRECEEDED BY AN ASTERISK (*) ARE NOT NWS OR FAA
     STATIONS AND ARE NOT SUBJECT TO NWS AND FAA QUALITY CONTROL.

CAZ041-042-087-162300-
LA AND ORANGE COUNTY COASTAL AREAS


CITY           SKY/WX    TMP DP  RH WIND       PRES   REMARKS
L.A. DOWNTOWN  SUNNY     68  53  58 W7        29.81S
L.A. AIRPORT   SUNNY     65  52  62 W14       29.83S
LONG BEACH     SUNNY     67  50  54 SW10      29.82F

CITY           SKY/WX    TMP DP  RH WIND       PRES   REMARKS
AVALON           N/A     66 N/A N/A N3          N/A
FULLERTON      SUNNY     71  51  49 S10       29.80S
*GETTY CENTER    N/A     66  52  59 SW9         N/A
HAWTHORNE      SUNNY     66  50  56 W12       29.82F
*LEO CARRILLO    N/A     69  56  62 SW6         N/A
*LOS ALAMITOS  SUNNY     68  53  59 S12       29.82S
*REDONDO BEACH   N/A     66  55  66 SW3       29.81F
SANTA ANA      SUNNY     68  52  56 SW12      29.82S
STA MONICA APT SUNNY     66  52  60 W8        29.83S
*UCLA            N/A     63  52  67 S8        29.79F

$$

CAZ547-548-048-162300-
LA COUNTY VALLEYS AND INLAND EMPIRE


CITY           SKY/WX    TMP DP  RH WIND       PRES   REMARKS
BURBANK        SUNNY     73  51  46 S10       29.79F
VAN NUYS       SUNNY     76  52  43 SE10      29.78F

CITY           SKY/WX    TMP DP  RH WIND       PRES   REMARKS
CORONA AIRPORT CLEAR     76  51  41 NW13      29.79S
*CHATSWORTH      N/A     78  56  46 SE5       29.75S
CHINO          SUNNY     79  49  34 W10G16    29.79F
*CLAREMONT       N/A     77  42  28 SW7         N/A
MARCH AFB      SUNNY     80  44  28 NW9       29.79F
ONTARIO        SUNNY     79  45  29 W12       29.78F
*PASADENA        N/A     75  55  50 E7          N/A
RIVERSIDE      SUNNY     80  45  28 W8        29.78F
SAN BERNARDINO SUNNY     81  36  19 MISG      29.79F
*SAN GABRIEL     N/A     73  50  44 S8        29.77S
*SAN RAFAEL HI   N/A     76  50  39 E7G18       N/A
*SAUGUS          N/A     80  50  34 S13G55      N/A
*WHITEMAN AP   SUNNY     73  50  43 E6        29.82F
*WHITTIER HILL   N/A     74  54  48 SW8         N/A
*WOODLAND HILL   N/A     79  52  38 NE5         N/A

$$

CAZ054-055-162300-
LA AND SAN BERNARDINO COUNTY MOUNTAINS


CITY           SKY/WX    TMP DP  RH WIND       PRES   REMARKS
*ACTON           N/A     85  31  14 W10         N/A
*BIG BEAR AIRP CLEAR     66  18  15 W9        30.01S
*BIG PINES       N/A     70  13  11 W3          N/A
*CHILAO          N/A     74   9   8 NE6G21      N/A
MT WILSON NWS    N/A     70  45  40 MISG        N/A
SANDBERG       SUNNY     70  34  26 NW25      29.94F
*WARM SPRINGS    N/A     80  42  25 CALM        N/A

$$

CAZ028-029-059-060-099-162300-
ANTELOPE VALLEY AND SURROUNDING AREAS


CITY           SKY/WX    TMP DP  RH WIND       PRES   REMARKS
LANCASTER      SUNNY     86  22   9 W22       29.78F
PALMDALE       SUNNY     86  14   7 W8G22     29.79F
*POPPY PARK      N/A     81  27  14 W22         N/A

CITY           SKY/WX    TMP DP  RH WIND       PRES   REMARKS
29 PALMS       MOSUNNY   87  20   8 VRB3      29.80F
BARSTOW/DAGGET SUNNY     89  23   9 N7        29.74F
BISHOP         SUNNY     81  19  10 CALM      29.82F
CHINA LAKE     MOSUNNY   86  26  11 CALM      29.75F
EDWARDS AFB    SUNNY     88  11   6 N7        29.75F
MOJAVE         FAIR      82  23  11 W22G31    29.80F
NEEDLES        SUNNY     96  20   6 E7        29.67F
VICTORVILLE    MOSUNNY   84  21  10 W3        29.80F

$$

CAZ039-040-162300-
VENTURA AND SANTA BARBARA COUNTY COAST


CITY           SKY/WX    TMP DP  RH WIND       PRES   REMARKS
CAMARILLO      SUNNY     66  53  63 SW10      29.81F
NWS OXNARD       N/A     66  54  64 SW12      29.82S
OXNARD AIRPORT SUNNY     63  53  70 SW9       29.82F HAZE
*POINT MUGU    MOSUNNY   68  54  60 SW12      29.82F HAZE
SBA APT/GOLETA SUNNY     63  52  67 SW7       29.82S
*SANTA BARBARA   N/A     66  52  61 W3        29.90F
*VENTURA         N/A     68  53  57 SW10      29.87S

$$

CAZ044-045-162300-
VENTURA COUNTY VALLEYS


CITY           SKY/WX    TMP DP  RH WIND       PRES   REMARKS
*SIMI VALLEY     N/A     73  53  49 NW3       29.75F
*OJAI            N/A     79  52  38 CALM      29.73F
*FILLMORE        N/A     76  59  54 SW1       29.69F

$$

CAZ053-162300-
VENTURA COUNTY MOUNTAINS


CITY           SKY/WX    TMP DP  RH WIND       PRES   REMARKS
*LOCKWOOD VLY    N/A    N/A N/A N/A MISG        N/A
*ROSE VALLEY     N/A     81  45  28 MISG        N/A

$$

CAZ034-035-036-162300-
CENTRAL COAST AND SANTA YNEZ VALLEY


CITY           SKY/WX    TMP DP  RH WIND       PRES   REMARKS
SAN LUIS OBISP SUNNY     70  52  52 NW21      29.81F
SANTA MARIA    SUNNY     69  50  50 NW14      29.83F

CITY           SKY/WX    TMP DP  RH WIND       PRES   REMARKS
*CAL POLY SLO    N/A     73  55  53 SW9         N/A
*CAMBRIA         N/A     58  52  80 E12       29.75S
*LOMPOC        SUNNY     64  52  63 W15       29.85F
*PISMO BEACH     N/A     67  57  70 S5        29.81F
*SANTA YNEZ    FAIR      73  50  43 W14       29.81S

$$

CAZ037-038-051-162300-
SAN LUIS OBISPO COUNTY INTERIOR AND CUYAMA VALLEY


CITY           SKY/WX    TMP DP  RH WIND       PRES   REMARKS
*CUYAMA          N/A     78  26  15 CALM      29.67F
PASO ROBLES    SUNNY     83  38  20 VRB5      29.81F

$$

CAZ032-033-061-162300-
SOUTHERN DESERTS


CITY           SKY/WX    TMP DP  RH WIND       PRES   REMARKS
BLYTHE         SUNNY     93  28  10 S8G16     29.67F
IMPERIAL       SUNNY     93  29  10 MISG      29.64F
PALM SPRINGS   SUNNY     94  24   8 CALM      29.68F
THERMAL        SUNNY     96  27   8 SE10G18   29.63F HX  90

$$

ELSEWHERE ACROSS THE WESTERN UNITED STATES AND MEXICO


CITY           SKY/WX    TMP DP  RH WIND       PRES   REMARKS
DENVER, CO     PTSUNNY   52  21  29 NE17      29.93R
GRAND CANYON,  MOSUNNY   64  11  12 NW10G21   29.95F
HONOLULU, HI   MOSUNNY   81  61  50 NE9G18    30.09F
KAHULUI, MAUI  LGT RAIN  75  70  83 NE13G26   30.10F
LAKE TAHOE, CA SUNNY     65  27  23 N8        30.00F
LAS VEGAS, NV  MOSUNNY   85  16   7 VRB5      29.72F
MAMMOTH LAKES, FAIR      70  19  14 NW6       29.99F
MEXICO CITY, M CLOUDY    64  50  59 E14G26    30.16R
PHOENIX, AZ    PTSUNNY   91  13   5 W8G20     29.69F
PORTLAND, OR   CLOUDY    58  43  57 SW10      30.09F
RENO, NV       PTSUNNY   72  24  16 N8        29.93F
SALT LAKE CITY PTSUNNY   56   4  12 NW13G20   30.00S
SAN DIEGO, CA  MOSUNNY   65  52  62 S9        29.85S
SAN FRANCISCO, PTSUNNY   69  50  50 NW22      29.86F
SAN JOSE, CA   PTSUNNY   79  46  31 NW13      29.84F
SEATTLE, WA    LGT RAIN  52  48  87 S14       30.05F
TIJUANA, MEX   SUNNY     68  48  49 W7        29.85F

$$

STATION/POSITION TIME  TEMP    WIND        PRES    VSBY  WAVE
                       AIR SEA DIR/SP/G                  HT/PER
                 (UTC) (F)     (DEG/KT/KT) (MB)    (MI)  (FT/S)
POINT ARGUELLO B NOT AVBL
WEST SANTA BARBA 2100   54 54  320/ 12/ 16 1010.3F         8/10
POINT CONCEPTION NOT AVBL
EAST SANTA BARBA NOT AVBL
SANTA MONICA BAY 2200   59 62  230/  6/  8 1009.9F         3/14



USA.gov is the U.S. government's official web portal to all federal, state and local government web resources and services.